Total_Precipitation_Accumulation
0.99 1.04 1.09 1.15 1.19 1.18 1.23 1.32 1.47 1.49 1.31 1.08 0.98 1.00 1.06 1.10 1.26 1.11 1.04 1.05 0.94 0.87 0.86 0.88 0.90 0.93 0.99 1.05 1.09 1.14 1.16 1.22 1.28 1.39 1.54 1.67 1.79 1.89
0.85 0.86 0.89 0.95 1.11 1.20 1.27 1.34 1.43 1.51 1.47 1.18 1.03 1.02 1.07 1.09 1.27 1.07 1.05 1.13 0.95 0.82 0.77 0.87 0.93 0.92 0.94 0.94 0.93 0.96 1.00 1.04 1.08 1.18 1.32 1.44 1.58 1.73
0.71 0.72 0.79 0.85 0.93 1.00 1.12 1.24 1.40 1.53 1.58 1.35 1.12 1.06 1.09 1.13 1.16 1.04 0.95 0.90 0.84 0.82 0.71 0.76 1.00 1.16 1.06 0.95 0.89 0.87 0.89 0.94 0.98 1.06 1.18 1.32 1.42 1.52
0.62 0.64 0.63 0.66 0.77 0.85 0.95 1.05 1.16 1.27 1.39 1.36 1.17 1.08 1.08 1.15 1.19 1.17 1.00 0.85 0.78 0.86 0.76 0.70 0.84 1.23 1.30 1.07 0.99 0.91 0.84 0.84 0.86 0.93 1.03 1.14 1.23 1.35
0.51 0.57 0.61 0.65 0.74 0.82 0.91 0.95 1.01 1.06 1.21 1.26 1.16 1.10 1.11 1.15 1.25 1.19 1.00 0.93 0.71 0.68 0.70 0.73 0.85 1.37 1.71 1.48 1.21 1.10 0.93 0.84 0.77 0.81 0.90 0.96 1.00 1.06
0.41 0.45 0.49 0.57 0.66 0.77 0.83 0.90 0.98 1.08 1.16 1.24 1.23 1.21 1.21 1.19 1.24 1.27 1.09 0.93 0.75 0.54 0.62 0.70 0.88 1.35 1.90 2.07 1.69 1.43 1.21 1.02 0.89 0.82 0.80 0.80 0.77 0.74
0.40 0.40 0.39 0.44 0.55 0.61 0.68 0.81 1.00 1.15 1.16 1.21 1.23 1.25 1.25 1.30 1.24 1.16 1.08 0.94 0.77 0.62 0.64 0.66 0.91 1.56 2.13 2.43 2.27 1.73 1.32 1.11 0.95 0.84 0.80 0.74 0.69 0.63
0.48 0.46 0.36 0.34 0.38 0.44 0.52 0.63 0.81 1.03 1.17 1.23 1.23 1.21 1.19 1.23 1.22 1.17 1.16 1.13 0.99 0.71 0.67 0.73 1.05 1.86 2.44 2.68 2.59 1.90 1.33 1.11 1.00 0.90 0.84 0.77 0.69 0.63
0.52 0.51 0.40 0.33 0.40 0.47 0.49 0.52 0.62 0.79 1.04 1.22 1.28 1.16 1.20 1.28 1.32 1.33 1.24 1.23 1.16 0.84 0.80 0.94 1.24 1.84 2.32 2.73 2.66 2.00 1.48 1.21 1.09 1.00 0.92 0.84 0.73 0.63
0.43 0.45 0.49 0.52 0.44 0.44 0.50 0.65 0.80 0.87 0.91 0.96 1.13 1.15 1.18 1.18 1.14 1.17 1.18 1.21 1.11 0.88 0.88 1.14 1.35 1.76 2.12 2.54 2.54 1.95 1.52 1.29 1.18 1.07 0.93 0.81 0.71 0.63
0.37 0.36 0.39 0.46 0.44 0.49 0.64 0.88 1.07 1.21 1.05 1.01 1.07 1.21 1.23 1.10 0.94 1.00 1.23 1.32 1.18 0.93 0.86 1.09 1.32 1.51 1.81 2.12 2.11 1.84 1.50 1.31 1.16 1.02 0.89 0.77 0.69 0.66
0.43 0.42 0.46 0.47 0.49 0.61 0.76 1.03 1.25 1.36 1.18 1.10 1.22 1.35 1.28 1.18 1.09 1.13 1.33 1.32 1.19 1.12 0.93 0.99 1.15 1.27 1.65 1.80 1.65 1.49 1.43 1.40 1.25 1.12 0.97 0.79 0.64 0.58
0.48 0.53 0.55 0.56 0.54 0.65 0.83 1.02 1.23 1.29 1.24 1.21 1.22 1.24 1.24 1.23 1.13 1.12 1.15 1.12 1.12 1.11 0.89 0.96 1.17 1.26 1.48 1.63 1.56 1.44 1.30 1.28 1.26 1.31 1.26 1.01 0.74 0.60
0.58 0.60 0.58 0.58 0.61 0.76 0.89 1.10 1.30 1.42 1.31 1.17 1.07 1.02 1.01 1.05 1.02 0.90 0.84 0.82 0.87 0.93 0.85 0.92 1.20 1.35 1.33 1.32 1.46 1.40 1.32 1.30 1.26 1.30 1.34 1.21 1.00 0.86
0.51 0.65 0.64 0.60 0.75 1.03 1.21 1.33 1.49 1.54 1.35 1.08 0.99 0.91 0.84 0.80 0.77 0.78 0.74 0.69 0.67 0.68 0.63 0.70 0.96 1.13 1.17 1.21 1.30 1.28 1.38 1.56 1.44 1.40 1.33 1.21 1.10 0.97
0.41 0.60 0.73 0.76 0.92 1.21 1.44 1.54 1.58 1.49 1.24 1.02 0.89 0.82 0.75 0.71 0.70 0.67 0.69 0.66 0.69 0.72 0.63 0.61 0.72 0.89 1.04 1.07 1.15 1.25 1.32 1.70 1.72 1.48 1.35 1.32 1.21 1.09
0.37 0.54 0.74 0.84 1.04 1.26 1.40 1.41 1.35 1.25 1.15 0.97 0.83 0.77 0.75 0.72 0.70 0.64 0.63 0.59 0.61 0.64 0.64 0.62 0.65 0.70 0.78 0.87 1.02 1.17 1.31 1.51 1.56 1.34 1.20 1.30 1.32 1.17
0.40 0.62 0.81 0.90 1.06 1.18 1.26 1.23 1.13 1.04 0.97 0.88 0.81 0.73 0.70 0.68 0.67 0.60 0.54 0.52 0.56 0.55 0.53 0.50 0.49 0.50 0.58 0.75 0.96 1.04 1.10 1.27 1.30 1.13 0.94 1.03 1.26 1.23
0.44 0.65 0.82 0.95 1.05 1.08 1.09 1.04 0.99 0.93 0.85 0.78 0.74 0.69 0.62 0.58 0.56 0.51 0.47 0.47 0.46 0.44 0.40 0.36 0.32 0.31 0.42 0.76 1.00 1.06 0.98 1.00 1.01 0.96 0.89 0.89 1.11 1.22
0.51 0.67 0.79 0.84 0.90 0.94 0.92 0.91 0.88 0.81 0.74 0.71 0.70 0.67 0.58 0.52 0.47 0.44 0.42 0.40 0.39 0.34 0.30 0.27 0.26 0.28 0.35 0.58 0.95 1.12 0.96 0.75 0.68 0.73 0.76 0.80 0.93 1.01
0.53 0.64 0.70 0.73 0.76 0.80 0.78 0.75 0.73 0.69 0.63 0.60 0.60 0.62 0.60 0.52 0.43 0.36 0.32 0.26 0.27 0.28 0.29 0.31 0.30 0.25 0.24 0.30 0.57 0.82 0.85 0.78 0.62 0.54 0.54 0.59 0.61 0.56
0.50 0.58 0.60 0.60 0.60 0.61 0.58 0.53 0.54 0.54 0.52 0.53 0.53 0.52 0.51 0.45 0.38 0.31 0.27 0.24 0.24 0.22 0.23 0.25 0.22 0.18 0.20 0.27 0.43 0.59 0.63 0.56 0.50 0.47 0.46 0.42 0.38 0.46
0.43 0.46 0.50 0.50 0.45 0.43 0.44 0.44 0.45 0.47 0.47 0.48 0.48 0.46 0.43 0.37 0.31 0.26 0.23 0.20 0.18 0.16 0.17 0.19 0.19 0.17 0.17 0.20 0.26 0.33 0.36 0.33 0.30 0.32 0.44 0.49 0.46 0.53